#timestamp,LO_Frequency,Hit,StdDev 
1622257215.7,286046998.8,N
1622257235.5,286046999.3,N
1622257255.4,286047000.8,N
1622257275.2,286047002.5,N
1622257295.0,286046999.0,N
1622257295.9,286046999.0,N
1622257315.8,286046998.5,N
1622257335.6,286046998.3,N
1622257355.4,286047001.2,N
1622257375.3,286047002.4,N
1622257395.1,286047001.8,N
1622257415.9,286047002.5,N
1622257435.7,286047002.1,N
1622257455.5,286047000.1,N
1622257475.4,286047002.8,N
1622257495.2,286047001.0,N
1622257515.1,286046998.5,N
1622257516.0,286046998.5,N
1622257535.8,286046998.3,N
1622257555.6,286047000.0,N
1622257575.5,286047000.4,N
1622257595.3,286047000.8,N
1622257615.2,286046999.0,N
1622257635.9,286046996.6,N
1622257655.7,286046995.1,Y
1622257675.6,286046997.0,P
1622257695.4,286046996.9,N
1622257715.2,286046996.5,N
1622257735.1,286046995.7,Y
1622257736.0,286046995.7,P
1622257755.8,286046996.7,P
1622257775.7,286046997.6,P
1622257795.5,286046995.3,Y
1622257815.3,286046998.1,P
1622257835.2,286046998.2,P
1622257855.0,286046998.7,N
1622257855.9,286046998.7,N
1622257875.8,286046998.6,N
1622257895.6,286046998.5,N
1622257915.4,286047000.0,N
1622257935.3,286047000.2,N
1622257955.1,286047002.1,N
1622257975.9,286047003.9,N
1622257995.7,286047002.5,N
1622258015.5,286047002.4,N
1622258035.4,286047002.8,N
1622258055.2,286047003.0,N
1622258075.1,286047005.7,N
1622258076.0,286047005.7,N
1622258095.8,286047004.4,N
1622258115.6,286047002.5,N
1622258135.5,286047004.0,N
1622258155.3,286047005.9,N
1622258175.1,286047005.2,N
1622258195.9,286047006.9,N
1622258215.7,286047006.4,N
1622258235.6,286047005.0,N
1622258255.4,286047004.1,N
1622258275.2,286047004.6,N
1622258295.1,286047002.9,N
1622258296.0,286047002.9,N
1622258315.8,286047003.5,N
1622258335.7,286047004.2,N
1622258355.5,286047004.3,N
1622258375.4,286047003.6,N
1622258395.2,286047002.9,N
1622258415.0,286047006.0,N
1622258415.9,286047006.0,N
1622258435.8,286047002.0,N
1622258455.6,286047001.3,N
1622258475.4,286047004.0,N
1622258495.3,286047004.4,Y
1622258515.1,286046998.6,P
1622258535.9,286047000.1,N
1622258555.7,286046998.5,N
1622258575.6,286047001.2,N
1622258595.4,286046999.3,N
1622258615.2,286046996.8,N
1622258635.1,286046997.4,N
1622258636.0,286047011.9,Y
1622258655.8,286047001.0,P
1622258675.7,286047001.0,N
1622258695.5,286046998.6,N
1622258715.4,286047000.7,N
1622258735.2,286046999.1,N
1622258755.0,286046998.2,N
1622258755.9,286046998.2,N
1622258775.8,286046998.1,N
1622258795.6,286047000.4,N
1622258815.4,286046998.1,N
1622258835.3,286046998.7,N
1622258855.1,286046998.6,N
1622258875.9,286046998.6,N
1622258895.7,286046998.5,N
1622258915.5,286046998.7,N
1622258935.4,286046998.8,N
1622258955.2,286047000.0,N
1622258975.1,286047001.2,N
1622258976.0,286047001.2,N
1622258995.8,286046999.8,N
1622259015.6,286047002.5,N
1622259035.5,286047000.2,N
1622259055.3,286046999.7,N
1622259075.2,286047001.3,N
1622259095.9,286047002.3,N
1622259115.7,286047000.5,N
1622259135.6,286046998.5,N
1622259155.4,286046996.5,N
1622259175.2,286047000.5,N
1622259195.1,286047001.4,N
1622259196.0,286047001.4,N
1622259215.8,286047002.4,N
1622259235.7,286047000.3,N
1622259255.5,286047002.5,N
1622259275.3,286046999.3,N
1622259295.2,286046999.2,N
1622259315.0,286046999.5,N
1622259315.9,286046999.5,N
1622259335.8,286046995.3,Y
1622259355.6,286046999.1,P
1622259375.4,286047000.3,N
1622259395.3,286047001.7,P
1622259415.1,286047001.3,N
1622259435.9,286046999.9,N
1622259455.7,286047000.1,N
1622259475.5,286047003.0,Y
1622259495.4,286047003.4,P
1622259515.2,286047004.0,N
1622259535.1,286047001.7,N
1622259536.0,286047001.7,N
1622259555.8,286047003.0,N
1622259575.6,286047004.3,Y
1622259595.5,286047000.0,P
1622259615.3,286046998.4,N
1622259635.2,286046998.8,N
1622259655.0,286046998.1,N
1622259655.9,286046998.1,N
1622259675.7,286047001.1,N
1622259695.6,286046998.8,N
1622259715.4,286047001.1,N
1622259765.3,286047004.3,E
1622259775.2,286047000.9,N
1622259795.0,286046996.7,P
1622259795.9,286046996.7,N
1622259815.8,286046997.4,N
1622259835.6,286046999.6,N
1622259855.5,286046998.6,N
1622259875.3,286046997.2,N
1622259895.1,286046996.7,N
1622259915.9,286046994.7,Y
1622259935.5,286046996.1,P
1622259955.4,286046999.5,N
1622259975.2,286046999.3,N
1622259995.0,286047000.7,N
1622259996.0,286047000.7,N
1622260015.8,286046998.4,N
1622260035.6,286046995.2,Y
1622260055.5,286046996.7,P
1622260075.3,286046997.2,N
1622260095.1,286046996.8,P
1622260115.9,286046999.4,N
1622260135.7,286047000.5,N
1622260155.6,286047000.5,N
1622260175.4,286046996.5,N
1622260195.2,286046999.2,N
1622260215.1,286046997.5,N
1622260216.0,286046997.5,N
1622260235.8,286046998.7,N
1622260255.6,286046998.8,N
1622260275.5,286046999.6,N
1622260295.3,286046999.2,N
1622260315.1,286046996.9,N
1622260335.9,286046998.8,N
1622260355.7,286046998.5,N
1622260375.6,286047001.1,N
1622260395.4,286046999.4,N
1622260415.2,286046996.6,N
1622260435.1,286046999.3,N
1622260436.0,286046999.3,N
1622260455.8,286046998.3,N
1622260475.7,286046999.1,N
1622260495.5,286046998.3,N
1622260515.4,286047002.7,N
1622260535.2,286046998.1,N
1622260555.0,286046996.8,N
1622260555.9,286046996.8,N
1622260575.8,286046995.5,Y
1622260595.6,286046997.5,P
1622260615.4,286046996.3,P
1622260635.3,286046996.8,P
1622260655.1,286046996.5,Y
1622260675.9,286046999.9,P
1622260695.7,286047000.8,N
1622260715.5,286047002.2,N
1622260735.4,286047002.4,N
1622260755.2,286047000.1,N
1622260775.0,286047000.2,N
1622260776.0,286047000.2,N
1622260795.8,286047000.4,N
